KII19X KMIA-MMUN

Flight info

Callsign KII19X
Flight time N/A
Altitude 34000
Route GLADZ4 LULLS Y196 CANOA UB879 NOSAT NOSAT1B
Aircraft B722/M-VGDW/C

Departure

Time 2026-04-30 21:29
Airport Miami International Airport (KMIA)

Arrival

Time N/A
Airport Cancún International Airport (MMUN)
Time Latitude Longitude Altitude Speed Heading
2026-04-30 21:15 25.79178 -80.30145 21 ft 0 kts 180°
2026-04-30 21:20 25.79177 -80.30145 21 ft 1 kts 180°
2026-04-30 21:20 25.79147 -80.30142 20 ft 6 kts 166°
2026-04-30 21:21 25.79092 -80.30127 21 ft 10 kts 174°
2026-04-30 21:21 25.79012 -80.30123 21 ft 13 kts 178°
2026-04-30 21:21 25.78863 -80.30033 18 ft 16 kts 86°
2026-04-30 21:22 25.78869 -80.29906 19 ft 16 kts 87°
2026-04-30 21:22 25.78889 -80.29431 18 ft 24 kts 88°
2026-04-30 21:23 25.78897 -80.29236 18 ft 26 kts 87°
2026-04-30 21:23 25.78907 -80.29042 18 ft 18 kts 81°
2026-04-30 21:23 25.79035 -80.28880 18 ft 16 kts 357°
2026-04-30 21:24 25.79156 -80.28885 17 ft 19 kts 358°
2026-04-30 21:24 25.79296 -80.28886 17 ft 18 kts 359°
2026-04-30 21:24 25.79428 -80.28894 18 ft 20 kts 354°
2026-04-30 21:24 25.79502 -80.28964 18 ft 15 kts 300°
2026-04-30 21:25 25.79621 -80.29198 18 ft 20 kts 299°
2026-04-30 21:25 25.79694 -80.29341 18 ft 22 kts 300°
2026-04-30 21:25 25.79774 -80.29500 18 ft 25 kts 299°
2026-04-30 21:26 25.79930 -80.29824 19 ft 22 kts 294°
2026-04-30 21:26 25.79970 -80.29937 18 ft 6 kts 286°
2026-04-30 21:27 25.79971 -80.29942 17 ft 0 kts 286°
2026-04-30 21:27 25.79975 -80.29957 17 ft 4 kts 285°
2026-04-30 21:27 25.79988 -80.30008 17 ft 10 kts 285°
2026-04-30 21:28 25.80066 -80.30121 17 ft 6 kts 49°
2026-04-30 21:28 25.80075 -80.30060 17 ft 13 kts 87°
2026-04-30 21:28 25.80111 -80.29158 20 ft 123 kts 87°
2026-04-30 21:29 25.80149 -80.28023 231 ft 160 kts 88°
2026-04-30 21:29 25.80556 -80.24497 2520 ft 154 kts 87°
2026-04-30 21:30 25.80579 -80.21974 3382 ft 195 kts 89°
2026-04-30 21:31 25.82135 -80.16892 3824 ft 256 kts 38°
2026-04-30 21:31 25.85623 -80.15794 5810 ft 262 kts
2026-04-30 21:32 25.89373 -80.15827 8192 ft 276 kts 353°
2026-04-30 21:32 25.91271 -80.16249 9354 ft 280 kts 342°
2026-04-30 21:32 25.93124 -80.16985 10447 ft 285 kts 339°
2026-04-30 21:32 25.94980 -80.17739 11482 ft 290 kts 339°
2026-04-30 21:33 25.96815 -80.18754 12464 ft 295 kts 322°
2026-04-30 21:33 25.99142 -80.22451 14332 ft 302 kts 286°
2026-04-30 21:33 25.99598 -80.24751 15218 ft 307 kts 278°
2026-04-30 21:34 25.99805 -80.27126 16073 ft 311 kts 273°
2026-04-30 21:34 25.99754 -80.31988 17358 ft 318 kts 268°
2026-04-30 21:34 25.99730 -80.34496 17496 ft 332 kts 270°
2026-04-30 21:35 25.99758 -80.36968 17078 ft 346 kts 272°
2026-04-30 21:35 25.99762 -80.39681 17281 ft 356 kts 270°
2026-04-30 21:35 25.99328 -80.42395 17769 ft 361 kts 255°
2026-04-30 21:35 25.98250 -80.44942 18256 ft 369 kts 242°
2026-04-30 21:36 25.96770 -80.47296 18717 ft 375 kts 235°
2026-04-30 21:36 25.95073 -80.49518 19225 ft 379 kts 232°
2026-04-30 21:37 25.90126 -80.56522 20645 ft 389 kts 236°
2026-04-30 21:37 25.88440 -80.58885 21133 ft 392 kts 234°
2026-04-30 21:37 25.86722 -80.61253 21613 ft 396 kts 235°
2026-04-30 21:37 25.85008 -80.63674 22056 ft 399 kts 236°
2026-04-30 21:38 25.83299 -80.66121 22543 ft 403 kts 236°
2026-04-30 21:38 25.81563 -80.68574 23071 ft 406 kts 235°
2026-04-30 21:38 25.79830 -80.71011 23542 ft 409 kts 236°
2026-04-30 21:38 25.78364 -80.73744 23967 ft 406 kts 249°
2026-04-30 21:39 25.77370 -80.76626 24420 ft 406 kts 254°
2026-04-30 21:39 25.76590 -80.79630 24858 ft 406 kts 258°
2026-04-30 21:39 25.75881 -80.82678 25285 ft 409 kts 257°
2026-04-30 21:39 25.75057 -80.85704 25701 ft 411 kts 254°
2026-04-30 21:40 25.74164 -80.88725 26109 ft 413 kts 254°
2026-04-30 21:40 25.73320 -80.91783 26514 ft 415 kts 256°
2026-04-30 21:40 25.72531 -80.94811 26899 ft 417 kts 256°
2026-04-30 21:40 25.71697 -80.97899 27302 ft 419 kts 255°
2026-04-30 21:41 25.70822 -81.00985 27671 ft 421 kts 254°
2026-04-30 21:41 25.69959 -81.04094 28029 ft 422 kts 255°
2026-04-30 21:41 25.69120 -81.07222 28406 ft 424 kts 255°
2026-04-30 21:41 25.68272 -81.10358 28765 ft 426 kts 254°
2026-04-30 21:42 25.67399 -81.13503 29079 ft 428 kts 254°
2026-04-30 21:42 25.66520 -81.16667 29380 ft 431 kts 254°
2026-04-30 21:42 25.65656 -81.19809 29721 ft 432 kts 253°
2026-04-30 21:42 25.64507 -81.22892 30012 ft 436 kts 242°
2026-04-30 21:43 25.62771 -81.25660 30264 ft 440 kts 231°
2026-04-30 21:43 25.61352 -81.27340 30429 ft 443 kts 227°
2026-04-30 21:43 25.58310 -81.30383 30730 ft 448 kts 222°
2026-04-30 21:43 25.55897 -81.32576 30962 ft 449 kts 223°
2026-04-30 21:44 25.53561 -81.34878 31186 ft 450 kts 225°
2026-04-30 21:44 25.51278 -81.37264 31422 ft 452 kts 225°
2026-04-30 21:44 25.48941 -81.39610 31619 ft 455 kts 224°
2026-04-30 21:44 25.46545 -81.41911 31848 ft 457 kts 224°
2026-04-30 21:45 25.44963 -81.43447 31989 ft 458 kts 224°
2026-04-30 21:45 25.42596 -81.45812 32197 ft 459 kts 225°
2026-04-30 21:45 25.40222 -81.48199 32400 ft 461 kts 225°
2026-04-30 21:45 25.37032 -81.51334 32653 ft 465 kts 224°
2026-04-30 21:46 25.34605 -81.53712 32886 ft 467 kts 224°
2026-04-30 21:46 25.32183 -81.56113 33123 ft 469 kts 225°
2026-04-30 21:46 25.30545 -81.57739 33268 ft 470 kts 224°
2026-04-30 21:46 25.28095 -81.60155 33481 ft 472 kts 224°
2026-04-30 21:47 25.25668 -81.62538 33688 ft 474 kts 224°
2026-04-30 21:47 25.23170 -81.64997 33901 ft 476 kts 224°
2026-04-30 21:47 25.20699 -81.67437 34036 ft 479 kts 225°
2026-04-30 21:47 25.18156 -81.69859 34030 ft 487 kts 220°
2026-04-30 21:48 25.15280 -81.71797 34036 ft 497 kts 208°
2026-04-30 21:48 25.12063 -81.73284 34050 ft 504 kts 203°
2026-04-30 21:48 25.05309 -81.75536 34046 ft 508 kts 198°
2026-04-30 21:49 24.98618 -81.77975 34050 ft 506 kts 202°
2026-04-30 21:49 24.91914 -81.80400 34050 ft 507 kts 199°
2026-04-30 21:50 24.85244 -81.82760 34054 ft 497 kts 201°
2026-04-30 21:50 24.78767 -81.85119 34040 ft 482 kts 200°
2026-04-30 21:51 24.72332 -81.87398 34040 ft 489 kts 201°
2026-04-30 21:51 24.65850 -81.89738 34042 ft 490 kts 200°
2026-04-30 21:52 24.59368 -81.92040 34044 ft 489 kts 200°
2026-04-30 21:52 24.52980 -81.94576 34037 ft 486 kts 210°
2026-04-30 21:53 24.47672 -81.99019 34041 ft 478 kts 231°
2026-04-30 21:53 24.44064 -82.05050 34049 ft 472 kts 245°
2026-04-30 21:54 24.41365 -82.11600 34048 ft 471 kts 248°
2026-04-30 21:54 24.38463 -82.18059 34045 ft 472 kts 245°
2026-04-30 21:55 24.35641 -82.24550 34046 ft 471 kts 248°
2026-04-30 21:55 24.32808 -82.30988 34046 ft 472 kts 246°
2026-04-30 21:56 24.29954 -82.37462 34046 ft 471 kts 247°
2026-04-30 21:56 24.27100 -82.43958 34035 ft 474 kts 246°
2026-04-30 21:57 24.24219 -82.50465 34037 ft 474 kts 247°
2026-04-30 21:57 24.21352 -82.56968 34037 ft 474 kts 247°
2026-04-30 21:58 24.18463 -82.63486 34024 ft 478 kts 247°